Location: Czu?�w
(50.1404°N, 18.9919°E)
Time: 01:46:24
(UTC+00:00)

SeaSat 1 - Pass Details

Date: 27 October 2020
Orbit: 744 x 747 km, 108.0° (Epoch: 27 November)

Event Time Altitude Azimuth Distance (km) Brightness Sun altitude
Exits shadow 16:06:38 - 88° (E) 2,470 4.5 -6.7°
Reaches altitude 10° 16:07:19 10° 83° (E) 2,268 4.3 -6.8°
Maximum altitude 16:10:46 20° 38° (NE) 1,709 3.9 -7.3°
Drops below altitude 10° 16:14:14 10° 353° (N) 2,276 4.9 -7.9°
Sets 16:17:03 0° 337° (NNW) 3,204 5.9 -8.3°
